Location: Caltech
(34.1382°N, 118.1253°W)
Time: 23:39:06
(UTC-07:00)

PANSAT - Visible Passes

Search period start: 28 July 2014 00:00
Search period end: 07 August 2014 00:00
Orbit: 492 x 497 km, 28.5° (Epoch: 28 July)

Date Brightness Start Highest point End Pass type
(mag) Time Alt. Az. Time Alt. Az. Time Alt. Az.
28 Jul 9.4 04:47:27 16° S 04:48:51 19° SSE 04:51:38 10° ESE visible
29 Jul 9.3 04:23:50 20° SSE 04:23:54 20° SSE 04:26:47 10° ESE visible
30 Jul 9.6 04:00:14 18° SE 04:00:14 18° SE 04:01:54 10° ESE visible
31 Jul 10.3 03:36:39 12° ESE 03:36:39 12° ESE 03:37:01 10° ESE visible
31 Jul 8.5 05:11:05 15° WSW 05:13:48 34° S 05:17:20 10° ESE visible
01 Aug 8.4 04:47:32 27° SW 04:48:51 35° S 04:52:24 10° ESE visible
02 Aug 8.4 04:24:02 35° S 04:24:02 35° S 04:27:28 10° ESE visible
03 Aug 9.3 04:00:36 24° SE 04:00:36 24° SE 04:02:31 10° ESE visible
03 Aug 8.8 05:35:31 10° WSW 05:38:47 26° SSW 05:42:02 10° SE visible
04 Aug 10.3 03:37:17 12° ESE 03:37:17 12° ESE 03:37:33 10° ESE visible
04 Aug 8.8 05:11:44 16° WSW 05:13:49 25° SSW 05:17:02 10° SE visible
05 Aug 8.8 04:48:33 24° SSW 04:48:51 24° SSW 04:52:02 10° SE visible
06 Aug 9.5 04:25:30 18° SSE 04:25:30 18° SSE 04:27:00 10° SE visible
